DTUSAT-2
1 40030U 14033W 17068.02223595 .00000357 00000-0 45038-4 0 9997
2 40030 97.9150 338.4675 0010589 269.4177 90.5826 14.87950601147558
EO-80
1 40032U 14033Y 17068.26180471 .00000372 00000-0 46782-4 0 9994
2 40032 97.9157 338.7138 0010527 268.8910 91.1100 14.87885196147585
ANTELSAT
1 40034U 14033AA 17068.74326719 .00000254 00000-0 45898-4 0 9992
2 40034 97.8734 315.6793 0057738 252.4434 107.0462 14.73625490146270
VELOX-1
1 40057U 14034E 17068.71698641 .00000613 00000-0 94503-4 0 9997
2 40057 98.1855 167.4721 0011603 23.6485 336.5256 14.77025218145075
DAURIA DX 1
1 40071U 14037C 17068.81395259 .00000276 00000-0 43106-4 0 9994
2 40071 98.3284 175.9922 0009157 20.5955 339.5620 14.80971324144265
UKUBE-1
1 40074U 14037F 17068.80262330 .00000624 00000-0 83126-4 0 9992
2 40074 98.3367 179.3276 0005246 28.9167 331.2332 14.83400953144449
HODOYOSHI-1
1 40299U 14070B 17068.86064218 .00001315 00000-0 60426-4 0 9995
2 40299 97.4080 153.1006 0015098 80.4651 13.1739 15.22046134129832
CHUBUSAT-1
1 40300U 14070C 17068.86826632 .00001546 00000-0 73183-4 0 9994
2 40300 97.4012 150.5685 0022616 88.9532 22.1877 15.20626701129698
QSAT-EOS
1 40301U 14070D 17068.79260418 .00003162 00000-0 13708-3 0 9993
2 40301 97.3953 150.2962 0029900 87.0136 29.4957 15.22707505129705
FIREBIRD FU3
1 40377U 15003B 17068.48010244 .00002031 00000-0 91452-4 0 9996
2 40377 99.1141 232.6386 0137558 332.9386 26.4714 15.14685548115919
FIREBIRD FU4
1 40378U 15003C 17068.73793908 .00001909 00000-0 86164-4 0 9997
2 40378 99.1144 232.9774 0137725 331.9979 27.3884 15.14706580115952
GRIFEX
1 40379U 15003D 17068.69960178 .00001412 00000-0 68373-4 0 9999
2 40379 99.1159 231.1244 0143240 338.4947 21.0298 15.12432437115841
NO-84
1 40654U 15025D 17068.26292251 .00014816 00000-0 28159-3 0 03850
2 40654 054.9955 322.6387 0188052 015.9162 344.7650 15.31594653064570
NO-83
1 40655U 15025E 17068.15927813 .00024805 00000-0 39445-3 0 04252
2 40655 054.9838 304.8806 0160467 025.8818 335.0120 15.39915039064799
DEORBITSAIL
1 40719U 15032E 17068.19656792 .00000479 00000-0 76972-4 0 9994
2 40719 97.9919 323.1472 0017868 103.2985 257.0218 14.75934167 89578
NUDT-PHONESAT
1 40900U 15049B 17068.83925771 .00002632 00000-0 12963-3 0 9993
2 40900 97.4448 78.2070 0013527 205.4929 154.5640 15.18781272 81370
XW-2A
1 40903U 15049E 17068.86729037 .00002442 00000-0 67064-4 0 9998
2 40903 97.4305 93.3345 0013371 261.5568 98.4161 15.38179623 82375
XW-2C
1 40906U 15049H 17068.86634701 .00000867 00000-0 50816-4 0 9990
2 40906 97.4557 76.3548 0014931 192.5274 167.5589 15.14313054 81208
XW-2D
1 40907U 15049J 17068.85603776 .00000946 00000-0 55007-4 0 9993
2 40907 97.4525 76.1333 0014352 190.4549 169.6386 15.14401627 81205
LILACSAT-2
1 40908U 15049K 17068.82266430 .00000540 00000-0 34176-4 0 9997
2 40908 97.4626 75.9646 0015945 188.4980 171.5983 15.12982147 81144
XW-2F
1 40910U 15049M 17068.84661656 .00001396 00000-0 77756-4 0 9992
2 40910 97.4549 76.6546 0015288 188.8274 171.2692 15.15177622 81116
XW-2B
1 40911U 15049N 17068.85982960 .00000921 00000-0 53665-4 0 9994
2 40911 97.4570 76.4615 0014244 190.7426 169.3504 15.14369106 81106
DCBB
1 40912U 15049P 17068.77657204 .00001982 00000-0 10274-3 0 9992
2 40912 97.4530 78.1392 0015522 181.8720 263.8840 15.17239951 81214
TW-1C
1 40926U 15051B 17068.83358551 .00009563 00000-0 23288-3 0 9992
2 40926 97.2433 109.2074 0012898 161.4835 251.7743 15.41049291 81611
TW-1A
1 40928U 15051D 17068.78519719 .00004947 00000-0 14647-3 0 9993
2 40928 97.2401 106.3748 0012548 187.9154 261.5697 15.35265163 81442
IO-86
1 40931U 15052B 17068.00463743 .00000877 00000-0 33195-4 0 9996
2 40931 6.0004 227.0627 0013425 268.7667 91.1212 14.76516741 78139
GomX-3
1 40949U 98067HA 16292.18357804 .08527750 12374-4 77882-3 0 9992
2 40949 51.6055 106.7696 0006699 286.1344 73.8944 16.38002265 59645
LQSat
1 40958U 15057A 17068.79616658 .00000071 00000-0 18795-4 0 9996
2 40958 97.9858 145.8149 0018974 28.8409 331.3835 14.72947647 76488
AO-85
1 40967U 15058D 17068.46039477 .00000689 00000-0 98368-4 0 04195
2 40967 064.7764 161.3611 0174638 115.1332 246.8004 14.75346162062401
ATHENOXAT-1
1 41168U 15077C 17068.48188815 .00003446 00000-0 16006-3 0 9998
2 41168 14.9856 177.6338 0012517 73.5235 5.5813 15.11201653 67933
ChubuSat-2
1 41338U 16012B 17068.18298634 .00000463 00000-0 29808-4 0 9996
2 41338 31.0042 27.3580 0014000 150.1554 209.9882 14.99663842 57969
ChubuSat-3
1 41339U 16012C 17068.25817043 .00000621 00000-0 42038-4 0 9992
2 41339 31.0109 26.1877 0013652 156.9282 203.1958 14.99876220 57959
Horyu-4
1 41340U 16012D 17067.94082692 .00000718 00000-0 48835-4 0 9991
2 41340 031.0061 026.3432 0014360 161.4767 198.6393 15.00467853057944
OUFTI-1
1 41458U 16025C 17068.91049202 .00002166 00000-0 12137-3 0 9997
2 41458 98.1948 100.7727 0174579 261.3402 96.8010 15.02668663 47668
e-st@r-II
1 41459U 16025D 17068.52252444 .00001178 00000-0 68341-4 0 9990
2 41459 98.1966 100.3319 0175652 261.9972 96.1296 15.02549177 47604
AAUSAT4
1 41460U 16025E 17068.83924354 .00003291 00000-0 18251-3 0 9994
2 41460 98.1876 100.7229 0168680 260.3361 97.8757 15.03261540 47660
MinXSS
1 41474U 98067HU 17068.76669798 .00115387 00000-0 54538-3 0 9993
2 41474 51.6449 148.5769 0004072 21.0169 339.1000 15.82168842 46576
CADRE
1 41475U 98067HV 17003.74787607 .12518598 12537-4 55989-3 0 9998
2 41475 51.6110 110.0165 0004040 312.3134 47.7551 16.43344525 36494
NODES 1
1 41477U 98067HX 17068.75618660 .00036818 00000-0 28463-3 0 9996
2 41477 51.6345 155.9318 0003194 28.1800 331.9370 15.71519188 46380
NODES 2
1 41478U 98067HY 17068.45683778 .00041456 00000-0 32321-3 0 9998
2 41478 51.6347 157.6816 0003048 27.5061 332.6098 15.71260968 46334
LO-87
1 41557U 16033B 17068.79166073 .00001606 00000-0 63977-4 0 9995
2 41557 97.4701 148.3064 0014390 4.9275 355.2103 15.26638562 43260
NuSat2
1 41558U 16033C 17068.81659370 .00001622 00000-0 64857-4 0 9992
2 41558 97.4728 148.3682 0013836 3.7355 356.3984 15.26516415 43267
Lapan A3
1 41603U 16040E 17068.85983257 .00000239 00000-0 14590-4 0 9991
2 41603 97.4745 131.9645 0015268 63.0987 41.9544 15.19279711 39570
Swayam
1 41607U 16040J 17067.90547693 .00002119 00000-0 10041-3 0 9995
2 41607 097.4732 131.1377 0016043 070.0409 290.2553 15.20318593039363
Pratham
1 41783U 16059A 17068.15786006 .00000081 00000-0 25173-4 0 9990
2 41783 98.1799 130.5040 0034911 113.8220 246.6648 14.62810770 23979
AlSat 1N
1 41789U 16059G 17068.84397210 .00000144 00000-0 36657-4 0 9996
2 41789 98.1799 131.4955 0029899 106.3909 254.0566 14.64015341 24077
ScatSat
1 41790U 16059H 17068.76365039 -.00000000 00000-0 10798-4 0 9993
2 41790 98.0790 122.9506 0012545 93.4849 266.7782 14.50096830 23857
TY-1
1 41844U 16066D 17068.87135597 .00001640 00000-0 75243-4 0 9993
2 41844 97.4067 77.5436 0014750 222.9435 257.1434 15.21762325 18236
CAS-2T
1 41845U 16066E 17068.87678053 -.00000070 00000-0 00000 0 0 9994
2 41845 98.7815 82.1192 0366742 182.7716 177.1449 14.37707264 17221
Pegasus-1
1 41846U 16066F 17068.87759676 -.00000070 00000-0 00000 0 0 9996
2 41846 98.7829 81.9970 0368917 183.3922 176.4897 14.36896722 17215
STARS-C
1 41895U 98067KR 17068.55072153 .00021960 00000-0 30399-3 0 9992
2 41895 51.6447 174.1472 0005616 306.9842 53.0630 15.57014837 12441
Tancredo 1
1 41931U 98067KT 17068.54592362 .00044112 00000-0 56921-3 0 9994
2 41931 51.6418 174.1127 0008764 267.2974 92.6979 15.58492954 8013
